Simultaneous Nadir Overpasses (SNOs) Predictions

Prediction of SNOs near US between AQUA and NPP Satellite Orbit:

Table of predicted SNOs near US for the next 10.0 days since TLE Epoch: 10/25/2015
Index Date (AQUA) Time (AQUA) AQUA Lat,Lon Date (NPP) Time (NPP) NPP Lat,Lon Distance(km) Time Diff (sec)
1 10/26/2015 08:33:12 26.88,-100.28 10/26/2015 08:26:46 26.87,-100.31 3.49 386
2 10/26/2015 10:09:34 35.96,-122.56 10/26/2015 10:05:39 36.03,-123.10 48.85 235
3 10/29/2015 07:18:49 49.91, -76.04 10/29/2015 07:22:55 50.33, -78.21 161.65 246
4 10/29/2015 08:57:42 49.92,-100.76 10/29/2015 09:04:22 50.49,-103.51 206.13 400
5 10/31/2015 18:16:59 49.97, -80.23 10/31/2015 18:13:10 49.72, -81.69 108.87 229
6 10/31/2015 19:55:52 49.97,-104.94 10/31/2015 19:54:38 49.61,-107.02 154.11 74
7 10/31/2015 21:29:47 32.18,-123.77 10/31/2015 21:30:59 31.68,-126.19 235.20 72
8 11/03/2015 07:45:39 20.06, -89.56 11/03/2015 07:37:52 19.99, -89.37 21.68 467
9 11/03/2015 09:21:30 31.02,-111.58 11/03/2015 09:16:13 31.05,-111.87 28.23 317




NCC Satellite Simultaneous Nadir Overpasses (SNOs) Prediction Service
